Location: Maiden
(35.5760°N, 81.2120°W)
Time: 02:39:52
(UTC-04:00)

A-11 Canister half - Pass Details

Date: 08 August 2020
Orbit: 1527 x 1682 km, 47.3° (Epoch: 25 September)

Event Time Altitude Azimuth Distance (km) Brightness Sun altitude
Rises 13:21:43 0° 234° (SW) 4,892 11.8 70.2°
Reaches altitude 10° 13:24:50 10° 235° (SW) 3,918 11.4 70.2°
Maximum altitude 13:34:59 87° 325° (NW) 1,686 10.9 70.2°
Drops below altitude 10° 13:45:11 10° 56° (NE) 3,932 11.1 70.0°
Sets 13:48:19 0° 56° (ENE) 4,911 11.5 69.9°
